Погода в Кара-Хааке

Россия / Республика Тыва     51°53′14″N   94°27′28″E
темп.,
°C
ветер,
м/с
пор.,
м/с
влажн.,
%
обл.,
%
осадки,
мм/ч
давл.,
гПа
погр.,
м
20 апреля, вт
вт2001:00−1с3466100 0.9 1012423
04:00−3ссз4471100 0.1 1013523
07:00−5с3481100 0.9 1015419
10:00−1ссз4456100 0.3 10131032
13:00−1ссз4462100 0.6 10131098
16:000ссз4459100 0.1 10121129
19:00−2с5557100 0.1 1015785
22:00−5с3359100 0.0 1018572
21 апреля, ср
ср2101:00−6с3457100 0.0 1020626
04:00−6ссз3454100 0.0 1021742
07:00−7с335223 0.0 1023672
10:00−4ссз12374 0.0 10221355
13:00−1зсз22309 0.0 10181712
16:00+1з332927 0.0 10171845
19:000сз333637 0.0 10171082
22:00−3ссв33645 0.0 102167
22 апреля, чт
чт2201:00−5ссв23582 0.0 102275
04:00−5ссв235463 0.0 102370
07:00−4ссз2348100 0.0 1025356
10:00−1ссз333898 0.0 10251230
13:00+3с3333100 0.0 10241961
16:00+3ссв3336100 0.0 10251828
19:00+2ссв334589 0.0 10281065
22:00−2с337183 0.0 1034177
23 апреля, пт
пт2301:00−4с2371100 0.0 1035157
04:00−4с2370100 0.0 1036236
07:00−3с2362100 0.0 1036399
10:000ссз2347100 0.0 1034827
13:00+2с2352100 0.0 10321149
16:00+2ссв1272100 0.2 1032711
19:00+2с1265100 0.3 1031497
22:00+1св1171100 0.0 103170
24 апреля, сб
сб2401:000св0170100 0.0 103059
04:00−1ссз1292100 0.3 1029145
07:00−1ссз1191100 0.7 1028201
10:00+1зюз2192100 0.6 1027341
13:00+2ююз2181100 1.0 1026576
16:00+4зюз1171100 0.2 1024734
19:00+3сз1279100 0.4 1024505
22:00+2сз1298100 0.6 1024255